"Pseudo-MPEC" for A10DsIw

Created 2021 Nov 26 15:07:04 UT using Find_Orb

Click here for an explanation of pseudo-MPECs

 
 Astrometry: 
     A10DsIw  C2021 11 23.26599623 54 56.76 -46 45 13.1    ~BNJM 18.93oVNEOCPT05
     A10DsIw  C2021 11 23.26645223 54 56.90 -46 45 11.5    ~BNJM 18.94oVNEOCPT05
     A10DsIw  C2021 11 23.27148823 54 59.12 -46 44 55.6    ~BNJM 18.78oVNEOCPT05
     A10DsIw  C2021 11 23.27194523 54 59.40 -46 44 54.3    ~BNJM 18.80oVNEOCPT05
     A10DsIw |C2021 11 24xZ3jAstrometryp'r;#bY[1QX#\nRNZf[A!i8d8u=L/-BjZ8mvq(807
     A10DsIw |C2021 11 24.wZ@Upi-xIMYjNH)m:Xredacted;dfgKc1_!%\L-j$AdY8S@jGJG807
     A10DsIw |C2021 11 24uL*BAb,-*2J;qK@SR(wVIb5;;/,rV0s+6#(W?h?Ii?ro9%clickG807
     A10DsIw KC2021 11 25.02426900 07 57.37 -45 18 50.9    ~BP1M 19.4 GXNEOCPY00
     A10DsIw KC2021 11 25.03059300 07 59.83 -45 18 31.4    ~BP1M 18.8 GXNEOCPY00
     A10DsIw KC2021 11 25.03672500 08 02.19 -45 18 13.4    ~BP1M 19.6 GXNEOCPY00
     A10DsIw |C2021 11 25A##E?l:Z!,1dYp!\x2VAQYAuxmjlskgPn2o:'here);[forjFIP!807
     A10DsIw |C2021 11 25`)3J?uk:N9^@fO-wte7UH,682\b]HEKdoj9;^gTvatKIjHCU_R#k807
     A10DsIw |C2021 11 25hWKXsb?gDh17)oY7k@1pi!rf014a*32baNBZ@HMWRw6CB1UmTVeA807
     A10DsIw KC2021 11 26gw9US9AfU(oweqdlNpC?:@Po3*%R%FOs!]M:XnI`cF(q@tF7?+^oE94
     A10DsIw KC2021 11 26KSY#Y-,[jYPMexplanationybjLq8G=O?6ZW+4(_n_rNl$/67_8?E94
     A10DsIw KC2021 11 269Tc9L60e7(nV)gJqIc?.[mU9WkPp^o/8YH?oY*,aRY5])-,FL:[@E94
     A10DsIw KC2021 11 26otQ;%GytWk-%0V8nS!236opC!=ppRjeMAZ,B3Zy%h%ixq8;K9M^OE94

Station data:
(807) Cerro Tololo Observatory, La Serena  (S30.169136 W70.805900)  Chile.
(E94) Gisborne (Possum Observatory)  (S38.629922 E177.883310)  New Zealand.
(T05) ATLAS-HKO, Haleakala  (N20.707573 W156.257010)  US/Hawaii.  Observers
   L. Denneau, A. Heinze, H. Weiland, J. Tonry, H. Flewelling, A.
   Fitzsimmons, D. Young, B. Stalder. Measurers L. Denneau, A. Heinze, J.
   Tonry. 0.5-m f/2.0 Schmidt + CCD.
(Y00) SONEAR Observatory, Oliveira  (S20.715082 W44.784960)  Brazil.
   Observers C. Jacques, E. Pimentel, J. Barros. Measurer C. Jacques. 0.28-m
   f/2.2 astrograph + CCD.

Orbital elements:  A10DsIw
   Perihelion 2021 Aug 17.149041 +/- 0.325668 TT =  3:34:37 (JD 2459443.649041)
Epoch 2021 Nov 26.0 TT = JDT 2459544.5   Earth MOID: 0.0603   Ve: 0.0542
M 129.65393148 +/- 0.3574060        (J2000 ecliptic)          AutoNEOCP
n   1.28559939 +/- 0.000687204      Peri.   59.85743 +/- 0.1155283
a   0.83765581 +/- 0.000298501      Node   208.11676 +/- 0.0438574
e   0.2790979 +/- 0.00204855        Incl.   12.49492 +/- 0.1125399
P   0.77/280.02d           H 20.8   G  0.15   U  7.9  
q 0.60386782 +/- 0.00191621    Q 1.07144380 +/- 0.00137053
From 17 observations 2021 Nov. 23-26; mean residual 0".45
Residuals in arcseconds: 
211123 T05  .64+  .78-    211124 807  .50+  .45-    211125 807  .22+  .10-    
211123 T05  .02-  .55-    211125 Y00  .31-  .14-    211126 E94  .21+  .70-    
211123 T05  .33-  .27+    211125 Y00  .02-  .52+    211126 E94  .37-  .16-    
211123 T05  .45+  .20+    211125 Y00  .02-  .20+    211126 E94  .74+  .03+    
211124 807  .52-  1.0-    211125 807  .12+  .13+    211126 E94  .65+  1.2-    
211124 807  .17+  .03+    211125 807  .09+  .07-    

Ephemerides (geocentric):
Date (UTC) HH   RA              Dec         delta   r     elong  mag " sig PA
---- -- -- --  -------------   -----------  ------ ------ -----  --- ---- ---
2021 11 26 15  00 18 17.643   -44 03 18.33  .16549 1.0183  96.3 19.5 .158 116
2021 11 26 16  00 18 32.690   -44 01 23.27  .16569 1.0184  96.3 19.5 .158 118
2021 11 26 17  00 18 47.688   -43 59 28.33  .16590 1.0186  96.3 19.5 .159 121
2021 11 26 18  00 19 02.637   -43 57 33.52  .16610 1.0187  96.3 19.5 .160 124
2021 11 26 19  00 19 17.537   -43 55 38.83  .16631 1.0188  96.4 19.6 .161 127
2021 11 26 20  00 19 32.389   -43 53 44.27  .16651 1.0189  96.4 19.6 .163 129
2021 11 26 21  00 19 47.192   -43 51 49.84  .16672 1.0190  96.4 19.6 .165 132
2021 11 26 22  00 20 01.948   -43 49 55.53  .16693 1.0191  96.4 19.6 .167 135
2021 11 26 23  00 20 16.656   -43 48 01.34  .16713 1.0192  96.5 19.6 .170 137
2021 11 27 00  00 20 31.316   -43 46 07.28  .16734 1.0193  96.5 19.6 .173 140
2021 11 27 01  00 20 45.929   -43 44 13.35  .16754 1.0195  96.5 19.6 .176 142
2021 11 27 02  00 21 00.494   -43 42 19.55  .16775 1.0196  96.5 19.6 .180 145
2021 11 27 03  00 21 15.013   -43 40 25.87  .16796 1.0197  96.5 19.6 .184 147
2021 11 27 04  00 21 29.486   -43 38 32.31  .16816 1.0198  96.6 19.6 .188 149
2021 11 27 05  00 21 43.912   -43 36 38.89  .16837 1.0199  96.6 19.6 .193 152
2021 11 27 06  00 21 58.292   -43 34 45.59  .16857 1.0200  96.6 19.6 .197 154
2021 11 27 07  00 22 12.626   -43 32 52.41  .16878 1.0201  96.6 19.6 .202 156
2021 11 27 08  00 22 26.914   -43 30 59.37  .16899 1.0202  96.7 19.6 .208 158
2021 11 27 09  00 22 41.158   -43 29 06.45  .16919 1.0204  96.7 19.6 .213 159
2021 11 27 10  00 22 55.355   -43 27 13.65  .16940 1.0205  96.7 19.6 .219 161
2021 11 27 11  00 23 09.508   -43 25 20.99  .16961 1.0206  96.7 19.6 .225 163
2021 11 27 12  00 23 23.616   -43 23 28.45  .16981 1.0207  96.7 19.6 .231 165
2021 11 27 13  00 23 37.680   -43 21 36.03  .17002 1.0208  96.8 19.6 .237 166
2021 11 27 14  00 23 51.699   -43 19 43.75  .17023 1.0209  96.8 19.6 .244 168
2021 11 27 15  00 24 05.675   -43 17 51.59  .17043 1.0210  96.8 19.6 .250 169
2021 11 27 16  00 24 19.606   -43 15 59.55  .17064 1.0211  96.8 19.6 .257 170
2021 11 27 17  00 24 33.494   -43 14 07.65  .17085 1.0213  96.8 19.6 .264 172
2021 11 27 18  00 24 47.339   -43 12 15.87  .17106 1.0214  96.9 19.6 .271 173
2021 11 27 19  00 25 01.140   -43 10 24.22  .17126 1.0215  96.9 19.6 .279 174
2021 11 27 20  00 25 14.898   -43 08 32.69  .17147 1.0216  96.9 19.6 .286 175
2021 11 27 21  00 25 28.614   -43 06 41.30  .17168 1.0217  96.9 19.6 .294 177
2021 11 27 22  00 25 42.287   -43 04 50.03  .17188 1.0218  97.0 19.6 .302 178
2021 11 27 23  00 25 55.918   -43 02 58.88  .17209 1.0219  97.0 19.6 .310 179
2021 11 28 00  00 26 09.506   -43 01 07.87  .17230 1.0220  97.0 19.6 .318   0
2021 11 28 01  00 26 23.053   -42 59 16.98  .17251 1.0221  97.0 19.6 .326   1
2021 11 28 02  00 26 36.558   -42 57 26.22  .17272 1.0222  97.0 19.6 .334   2
2021 11 28 03  00 26 50.021   -42 55 35.58  .17292 1.0224  97.1 19.6 .343   2
2021 11 28 04  00 27 03.444   -42 53 45.07  .17313 1.0225  97.1 19.6 .351   3
2021 11 28 05  00 27 16.825   -42 51 54.69  .17334 1.0226  97.1 19.6 .360   4
2021 11 28 06  00 27 30.165   -42 50 04.43  .17355 1.0227  97.1 19.6 .369   5
2021 11 28 07  00 27 43.465   -42 48 14.31  .17375 1.0228  97.1 19.6 .377   6
2021 11 28 08  00 27 56.724   -42 46 24.31  .17396 1.0229  97.1 19.6 .386   6
2021 11 28 09  00 28 09.943   -42 44 34.43  .17417 1.0230  97.2 19.6 .395   7
2021 11 28 10  00 28 23.122   -42 42 44.68  .17438 1.0231  97.2 19.6 .405   8
2021 11 28 11  00 28 36.261   -42 40 55.06  .17459 1.0232  97.2 19.6 .414   9
2021 11 28 12  00 28 49.361   -42 39 05.57  .17480 1.0233  97.2 19.6 .423   9
2021 11 28 13  00 29 02.421   -42 37 16.20  .17500 1.0234  97.2 19.6 .433  10
2021 11 28 14  00 29 15.441   -42 35 26.96  .17521 1.0236  97.3 19.6 .442  10